• In Belarus
  • List of Countries
  • For 7 days
  • Water Temperature
  • Satellite Maps
  • Weather Map
  • Weather Widgets
  • user-avatar
    Login

    Hourly Weather Smolan

    Today, 18 October, Thursday

    Time Temperature Precipitation Wind Pressure Humidity
    00:00 +8°C° 0 mm 2 mps 657 mmHg 73%
    01:00 +8°C° 0 mm 2 mps 657 mmHg 75%
    02:00 +7°C° 0 mm 2 mps 657 mmHg 76%
    03:00 +7°C° 0 mm 2 mps 657 mmHg 77%
    04:00 +7°C° 0 mm 2 mps 657 mmHg 77%
    05:00 +7°C° 0 mm 2 mps 656 mmHg 78%
    06:00 +9°C° 0 mm 1 mps 657 mmHg 74%
    07:00 +10°C° 0 mm 1 mps 657 mmHg 71%
    08:00 +10°C° 0 mm 1 mps 657 mmHg 68%
    09:00 +12°C° 0 mm 1 mps 658 mmHg 61%
    10:00 +14°C° 0 mm 1 mps 658 mmHg 54%
    11:00 +16°C° 0 mm 1 mps 659 mmHg 47%
    12:00 +17°C° 0 mm 2 mps 658 mmHg 47%
    13:00 +17°C° 0 mm 2 mps 658 mmHg 46%
    14:00 +17°C° 0 mm 2 mps 658 mmHg 46%
    15:00 +16°C° 0 mm 2 mps 658 mmHg 50%
    16:00 +15°C° 0 mm 2 mps 657 mmHg 54%
    17:00 +15°C° 0 mm 1 mps 657 mmHg 58%
    18:00 +13°C° 0 mm 1 mps 656 mmHg 63%
    19:00 +12°C° 0 mm 1 mps 656 mmHg 68%
    20:00 +11°C° 0 mm 1 mps 656 mmHg 73%
    21:00 +10°C° 0 mm 1 mps 656 mmHg 74%
    22:00 +10°C° 0 mm 1 mps 656 mmHg 76%
    23:00 +9°C° 0 mm 1 mps 656 mmHg 77%

    Tomorrow, 19 October, Friday

    Time Temperature Precipitation Wind Pressure Humidity
    00:00 +9°C° 0 mm 1 mps 656 mmHg 78%
    01:00 +9°C° 0 mm 1 mps 656 mmHg 78%
    02:00 +9°C° 0 mm 1 mps 656 mmHg 79%
    03:00 +9°C° 0 mm 1 mps 656 mmHg 79%
    04:00 +8°C° 0 mm 1 mps 656 mmHg 80%
    05:00 +8°C° 0 mm 1 mps 656 mmHg 80%
    06:00 +9°C° 0 mm 1 mps 656 mmHg 77%
    07:00 +10°C° 0 mm 1 mps 656 mmHg 73%
    08:00 +11°C° 0 mm 1 mps 657 mmHg 69%
    09:00 +13°C° 0 mm 1 mps 657 mmHg 62%
    10:00 +15°C° 0 mm 1 mps 658 mmHg 55%
    11:00 +18°C° 0 mm 1 mps 659 mmHg 48%
    12:00 +17°C° 0 mm 2 mps 658 mmHg 49%
    13:00 +17°C° 0 mm 2 mps 658 mmHg 49%
    14:00 +17°C° 0 mm 2 mps 658 mmHg 50%
    15:00 +16°C° 0 mm 1 mps 658 mmHg 54%
    16:00 +15°C° 0 mm 1 mps 657 mmHg 58%
    17:00 +14°C° 0 mm 1 mps 657 mmHg 62%
    18:00 +13°C° 0 mm 1 mps 657 mmHg 65%
    19:00 +13°C° 0 mm 1 mps 657 mmHg 67%
    20:00 +12°C° 0 mm 1 mps 657 mmHg 70%
    21:00 +11°C° 0 mm 1 mps 657 mmHg 71%
    22:00 +11°C° 0 mm 1 mps 657 mmHg 72%
    23:00 +11°C° 0 mm 1 mps 657 mmHg 73%

    Day after tomorrow, 20 October, Saturday

    Time Temperature Precipitation Wind Pressure Humidity
    00:00 +10°C° 0.1 mm 1 mps 657 mmHg 74%
    01:00 +10°C° 0.1 mm 1 mps 657 mmHg 75%
    02:00 +10°C° 0.1 mm 1 mps 657 mmHg 76%
    03:00 +9°C° 0.1 mm 1 mps 657 mmHg 77%
    04:00 +8°C° 0.1 mm 2 mps 657 mmHg 79%
    05:00 +8°C° 0.1 mm 2 mps 657 mmHg 80%
    06:00 +8°C° 0.1 mm 2 mps 657 mmHg 78%
    07:00 +9°C° 0.1 mm 2 mps 658 mmHg 76%
    08:00 +9°C° 0.1 mm 2 mps 658 mmHg 73%
    09:00 +10°C° 0.4 mm 2 mps 658 mmHg 69%
    10:00 +13°C° 0.4 mm 2 mps 659 mmHg 64%
    11:00 +14°C° 0.4 mm 2 mps 659 mmHg 60%
    12:00 +13°C° 1.5 mm 2 mps 659 mmHg 63%
    13:00 +13°C° 1.5 mm 2 mps 658 mmHg 66%
    14:00 +12°C° 1.5 mm 2 mps 658 mmHg 69%
    15:00 +10°C° 1 mm 2 mps 658 mmHg 71%
    16:00 +10°C° 1 mm 2 mps 658 mmHg 73%
    17:00 +9°C° 1 mm 2 mps 658 mmHg 76%
    18:00 +9°C° 0.5 mm 2 mps 658 mmHg 78%
    19:00 +8°C° 0.5 mm 2 mps 658 mmHg 80%
    20:00 +8°C° 0.5 mm 2 mps 658 mmHg 83%
    21:00 +7°C° 0.7 mm 2 mps 658 mmHg 83%
    22:00 +7°C° 0.7 mm 2 mps 658 mmHg 84%
    23:00 +7°C° 0.7 mm 2 mps 658 mmHg 85%

    21 October, Sunday

    Time Temperature Precipitation Wind Pressure Humidity
    00:00 +7°C° 0.2 mm 2 mps 658 mmHg 85%
    01:00 +7°C° 0.2 mm 2 mps 658 mmHg 85%
    02:00 +5°C° 0.2 mm 3 mps 658 mmHg 86%
    03:00 +5°C° 0 mm 3 mps 658 mmHg 86%
    04:00 +5°C° 0 mm 3 mps 658 mmHg 86%
    05:00 +4°C° 0 mm 3 mps 658 mmHg 87%
    06:00 +5°C° 0 mm 3 mps 658 mmHg 85%
    07:00 +5°C° 0 mm 3 mps 659 mmHg 83%
    08:00 +7°C° 0 mm 3 mps 659 mmHg 81%
    09:00 +8°C° 0 mm 3 mps 659 mmHg 74%
    10:00 +10°C° 0 mm 3 mps 660 mmHg 66%
    11:00 +11°C° 0 mm 3 mps 660 mmHg 59%
    12:00 +12°C° 0 mm 3 mps 660 mmHg 57%
    13:00 +12°C° 0 mm 3 mps 660 mmHg 54%
    14:00 +14°C° 0 mm 2 mps 659 mmHg 51%
    15:00 +13°C° 0.1 mm 2 mps 659 mmHg 56%
    16:00 +12°C° 0.1 mm 2 mps 658 mmHg 60%
    17:00 +11°C° 0.1 mm 1 mps 658 mmHg 64%
    18:00 +10°C° 0.1 mm 1 mps 658 mmHg 68%
    19:00 +9°C° 0.1 mm 1 mps 658 mmHg 72%
    20:00 +8°C° 0.1 mm 1 mps 657 mmHg 76%
    21:00 +8°C° 0.1 mm 1 mps 657 mmHg 78%
    22:00 +8°C° 0.1 mm 1 mps 657 mmHg 80%
    23:00 +8°C° 0.1 mm 1 mps 657 mmHg 81%

    22 October, Monday

    Time Temperature Precipitation Wind Pressure Humidity
    00:00 +8°C° 0.6 mm 1 mps 657 mmHg 83%
    01:00 +7°C° 0.6 mm 1 mps 656 mmHg 85%
    02:00 +7°C° 0.6 mm 1 mps 656 mmHg 87%
    03:00 +6°C° 0.9 mm 1 mps 656 mmHg 87%
    04:00 +6°C° 0.9 mm 1 mps 655 mmHg 87%
    05:00 +6°C° 0.9 mm 1 mps 655 mmHg 86%
    06:00 +4°C° 0.5 mm 2 mps 655 mmHg 82%
    07:00 +4°C° 0.5 mm 2 mps 655 mmHg 79%
    08:00 +4°C° 0.5 mm 2 mps 655 mmHg 75%
    09:00 +5°C° 0.1 mm 2 mps 655 mmHg 69%
    10:00 +5°C° 0.1 mm 3 mps 656 mmHg 63%
    11:00 +7°C° 0.1 mm 3 mps 656 mmHg 57%
    12:00 +5°C° 0.1 mm 3 mps 656 mmHg 60%
    13:00 +5°C° 0.1 mm 3 mps 655 mmHg 64%
    14:00 +4°C° 0.1 mm 3 mps 655 mmHg 67%
    15:00 +4°C° 0.4 mm 3 mps 655 mmHg 71%
    16:00 +3°C° 0.4 mm 3 mps 655 mmHg 75%
    17:00 +2°C° 0.4 mm 3 mps 655 mmHg 79%
    18:00 +2°C° 0.3 mm 3 mps 655 mmHg 80%
    19:00 +1°C° 0.3 mm 4 mps 655 mmHg 81%
    20:00 0°C° 0.3 mm 4 mps 655 mmHg 82%
    21:00 0°C° 0.2 mm 4 mps 655 mmHg 83%
    22:00 0°C° 0.2 mm 4 mps 655 mmHg 83%
    23:00 0°C° 0.2 mm 4 mps 655 mmHg 84%

    23 October, Tuesday

    Time Temperature Precipitation Wind Pressure Humidity
    00:00 0°C° 0.3 mm 4 mps 654 mmHg 83%
    01:00 -1°C° 0.3 mm 4 mps 654 mmHg 83%
    02:00 -1°C° 0.3 mm 4 mps 654 mmHg 83%
    03:00 -1°C° 0.2 mm 4 mps 654 mmHg 82%
    04:00 -1°C° 0.2 mm 4 mps 654 mmHg 82%
    05:00 -1°C° 0.2 mm 4 mps 653 mmHg 81%
    06:00 0°C° 0.3 mm 4 mps 653 mmHg 81%
    07:00 0°C° 0.3 mm 4 mps 653 mmHg 80%
    08:00 0°C° 0.3 mm 4 mps 653 mmHg 80%
    09:00 +1°C° 0.3 mm 4 mps 653 mmHg 78%
    10:00 +1°C° 0.3 mm 4 mps 653 mmHg 77%
    11:00 +3°C° 0.3 mm 4 mps 653 mmHg 75%
    12:00 +3°C° 0.1 mm 4 mps 653 mmHg 73%
    13:00 +4°C° 0.1 mm 4 mps 652 mmHg 72%
    14:00 +4°C° 0.1 mm 4 mps 652 mmHg 71%
    15:00 +4°C° 0.1 mm 3 mps 651 mmHg 73%
    16:00 +4°C° 0.1 mm 3 mps 651 mmHg 75%
    17:00 +3°C° 0.1 mm 3 mps 651 mmHg 77%
    18:00 +3°C° 0.1 mm 3 mps 651 mmHg 79%
    19:00 +3°C° 0.1 mm 3 mps 651 mmHg 80%
    20:00 +3°C° 0.1 mm 2 mps 650 mmHg 82%
    21:00 +3°C° 0.1 mm 2 mps 650 mmHg 82%
    22:00 +3°C° 0.1 mm 2 mps 650 mmHg 83%
    23:00 +3°C° 0.1 mm 2 mps 650 mmHg 83%
    Show more